sat.trackr.live / text

‹ back to catalog

STARLINK-34474

NORAD 64474 · 2025-133C

PAYLOAD ACTIVE UNKNOWN

§ Identity

Operator
Country
US
Launch date
2025-06-23
Launch site
AFETR
Launch vehicle
Mass (kg)
RCS (m²)

Purposes: comms

External: N2YO · Heavens-Above · Gunter

§ Orbital elements

Epoch: 2026-05-25T05:19:34.790016Z

Period
94.11 min
Inclination
53.1569°
Eccentricity
0.0001095
Mean motion
15.30190617 rev/d
Perigee alt
474.5 km
Apogee alt
476.0 km
Semi-major
6,853.4 km
B*
6.2319e-4
RAAN
121.4728°
Arg perigee
82.7679°
Mean anomaly
277.3447°
Rev number
5,288

§ Raw data

STARLINK-344741 64474U 25133C   26145.22193044  .00018138  00000+0  62319-3 0  99962 64474  53.1569 121.4728 0001095  82.7679 277.3447 15.30190617 52885

JSON: /api/v1/satellites/64474 · /tle

For live sub-satellite position, see the globe view (requires WebGL).

§ Visibility from observer

Set your observer location to see the next 7 days of passes ≥ 10°. The values pass through the URL so the page stays shareable.

No JS? Fill the form by hand. The geolocation button needs JavaScript.